Terminal Aerodrome Forecast
Issued by NWS St Louis, MO

Home | Current Version | Previous Version | Text Only | Print | Product List | Glossary On
Versions: 1 2 3 4 5 6 7 8 9 10 11 12 13 14 15 16 17 18 19 20
000
FTUS43 KLSX 221239 AAA
TAFCOU
TAF AMD
KCOU 221239Z 2213/2312 35010KT P6SM -SHRA OVC008
     FM221400 32010KT P6SM -SHRA OVC015
     FM221600 32010KT P6SM VCSH BKN025
     FM221800 32009KT P6SM BKN040
     FM222000 33006KT P6SM SCT150=

USA.gov is the U.S. government's official web portal to all federal, state and local government web resources and services.